• Join FlightAware (Why Join?)
  • Login
  • US Flag GB Flag 
04:17 EDT


 

Airport Tracker/Info


-or-


 

Live Flight TrackerFlight Track Log ✈ N158RA ✈ 10-Oct-2013 ✈ KMGY - KBKL

Flight Track Log - Related Links

Times and Time Zones

All times are in EDT time to prevent confusion due to time zone crossing. See the N158RA flight status page for this flight to view local times or setup timezone preferences in your user account.

Time Position Orientation Groundspeed Altitude Reporting Facility
EDT Latitude Longitude Course Direction KTS MPH feet Rate Location/Type
14:16 39.6014 -84.2189 29° Northeast 75 86 1,500  Level Indianapolis Center
14:17 39.6106 -84.2122 29° Northeast 80 92 1,800 600 Climbing Indianapolis Center
14:18 39.6308 -84.1994 26° Northeast 80 92 2,500 600 Climbing Indianapolis Center
14:19 39.6550 -84.1903 16° North 87 100 3,100 420 Climbing Indianapolis Center
14:19 39.6600 -84.1864 31° Northeast 73 84 3,100 480 Level Indianapolis Center
14:20 39.6756 -84.1747 30° Northeast 86 99 3,600 540 Climbing Indianapolis Center
14:20 39.6811 -84.1697 35° Northeast 85 98 3,700 360 Climbing Indianapolis Center
14:21 39.6961 -84.1594 28° Northeast 86 99 4,000 420 Climbing Indianapolis Center
14:21 39.7053 -84.1486 42° Northeast 86 99 4,200 420 Climbing Indianapolis Center
14:22 39.7147 -84.1411 31° Northeast 93 107 4,400 240 Climbing Indianapolis Center
14:22 39.7278 -84.1281 38° Northeast 92 106 4,500 360 Climbing Indianapolis Center
14:23 39.7383 -84.1178 37° Northeast 101 116 4,800 360 Climbing Indianapolis Center
14:23 39.7497 -84.1064 38° Northeast 96 110 4,900 300 Climbing Indianapolis Center
14:24 39.7639 -84.0953 31° Northeast 102 117 5,200 180 Climbing Indianapolis Center
14:24 39.7725 -84.0842 45° Northeast 99 114 5,100  Descending Indianapolis Center
14:25 39.7897 -84.0697 33° Northeast 117 135 5,200  Climbing Indianapolis Center
14:26 39.7992 -84.0592 41° Northeast 107 123 5,100  Descending Indianapolis Center
14:26 39.8175 -84.0447 31° Northeast 123 142 5,200  Climbing Indianapolis Center
14:27 39.8314 -84.0325 34° Northeast 116 133 5,100 -120 Descending Indianapolis Center
14:27 39.8494 -84.0203 27° Northeast 128 147 5,100 -120 Level Indianapolis Center
14:28 39.8619 -84.0064 40° Northeast 123 142 5,000  Descending Indianapolis Center
14:28 39.8803 -83.9875 38° Northeast 128 147 5,100  Climbing Indianapolis Center
14:29 39.8917 -83.9725 45° Northeast 125 144 5,000  Descending Indianapolis Center
14:29 39.9067 -83.9564 39° Northeast 123 142 5,100  Climbing Indianapolis Center
14:30 39.9178 -83.9442 40° Northeast 124 143 5,000 -120 Descending Indianapolis Center
14:30 39.9328 -83.9283 39° Northeast 124 143 5,000  Level Indianapolis Center
14:31 39.9431 -83.9142 47° Northeast 124 143 5,000  Level Indianapolis Center
14:31 39.9592 -83.8975 38° Northeast 123 142 5,000 -120 Level Indianapolis Center
14:32 39.9686 -83.8833 49° Northeast 124 143 4,900 60 Descending Indianapolis Center
14:32 39.9831 -83.8686 38° Northeast 123 142 5,100 60 Climbing Indianapolis Center
14:33 39.9939 -83.8536 47° Northeast 124 143 5,000  Descending Indianapolis Center
14:33 40.0097 -83.8350 42° Northeast 123 142 5,100  Climbing Indianapolis Center
14:34 40.0186 -83.8233 45° Northeast 122 140 5,000  Descending Indianapolis Center
14:34 40.0339 -83.8036 45° Northeast 122 140 5,100  Climbing Indianapolis Center
14:35 40.0475 -83.7869 43° Northeast 121 139 5,000  Descending Indianapolis Center
14:35 40.0550 -83.7828 23° Northeast 122 140 5,100 60 Climbing Indianapolis Center
14:36 40.0786 -83.7567 40° Northeast 121 139 5,100 -60 Level Indianapolis Center
14:37 40.1000 -83.7300 44° Northeast 122 140 5,000  Descending Indianapolis Center
14:37 40.1053 -83.7231 45° Northeast 120 138 5,100 60 Climbing Indianapolis Center
14:38 40.1314 -83.6944 40° Northeast 118 136 5,100 -60 Level Indianapolis Center
14:39 40.1481 -83.6722 46° Northeast 118 136 5,000  Descending Indianapolis Center
14:39 40.1556 -83.6631 43° Northeast 118 136 5,100  Climbing Indianapolis Center
14:40 40.1725 -83.6436 41° Northeast 118 136 5,000  Descending Indianapolis Center
14:40 40.1817 -83.6319 44° Northeast 118 136 5,100  Climbing Indianapolis Center
14:41 40.2014 -83.6081 43° Northeast 118 136 5,000  Descending Indianapolis Center
14:41 40.2053 -83.6058 24° Northeast 119 137 5,100 60 Climbing Indianapolis Center
14:42 40.2253 -83.5792 46° Northeast 118 136 5,100  Level Indianapolis Center
14:42 40.2294 -83.5769 22° Northeast 117 135 5,100 -120 Level Indianapolis Center
14:43 40.2511 -83.5478 46° Northeast 120 138 5,000 -120 Descending Indianapolis Center
14:43 40.2503 -83.5494 237° Southwest 119 137 5,000 -120 Level Indianapolis Center
14:44 40.2739 -83.5192 44° Northeast 119 137 4,900  Descending Indianapolis Center
14:44 40.2778 -83.5139 46° Northeast 123 142 5,000 60 Climbing Indianapolis Center
14:45 40.2992 -83.4872 44° Northeast 117 135 5,000  Level Indianapolis Center
14:45 40.2975 -83.4900 232° Southwest 118 136 5,000  Level Indianapolis Center
14:46 40.3217 -83.4600 43° Northeast 118 136 5,000  Level Indianapolis Center
14:47 40.3514 -83.4258 41° Northeast 119 137 5,000  Level Indianapolis Center
14:48 40.3753 -83.3969 43° Northeast 118 136 5,000  Level Indianapolis Center
14:49 40.3983 -83.3664 45° Northeast 118 136 5,000  Level Indianapolis Center
14:50 40.4219 -83.3350 45° Northeast 119 137 5,000  Level Indianapolis Center
14:51 40.4467 -83.3056 42° Northeast 120 138 5,000  Level Indianapolis Center
14:52 40.4725 -83.2769 40° Northeast 121 139 5,000 -60 Level Indianapolis Center
14:53 40.4992 -83.2378 48° Northeast 121 139 4,900 -60 Descending Indianapolis Center
14:54 40.5214 -83.2050 48° Northeast 120 138 4,900  Level Indianapolis Center
14:56 40.5442 -83.1733 47° Northeast 119 137 5,000  Climbing Indianapolis Center
14:57 40.5667 -83.1386 50° Northeast 120 138 5,000  Level Indianapolis Center
14:58 40.5889 -83.1053 49° Northeast 119 137 5,000  Level Indianapolis Center
14:59 40.6128 -83.0722 46° Northeast 122 140 5,100  Climbing Indianapolis Center
15:00 40.6342 -83.0378 51° Northeast 121 139 5,000 -60 Descending Indianapolis Center
15:01 40.6617 -83.0006 46° Northeast 121 139 5,000  Level Indianapolis Center
15:02 40.6847 -82.9661 49° Northeast 122 140 5,000  Level Indianapolis Center
15:03 40.7078 -82.9336 47° Northeast 121 139 5,000  Level Indianapolis Center
15:04 40.7306 -82.9006 48° Northeast 121 139 5,000  Level Indianapolis Center
15:05 40.7531 -82.8669 49° Northeast 122 140 5,000  Level Indianapolis Center
15:06 40.7756 -82.8336 48° Northeast 121 139 5,000 -60 Level Indianapolis Center
15:08 40.8247 -82.7589 49° Northeast 121 139 4,900  Descending Cleveland Center
15:09 40.8492 -82.7267 45° Northeast 124 143 5,000  Climbing Cleveland Center
15:10 40.8722 -82.6947 46° Northeast 119 137 4,900  Descending Cleveland Center
15:11 40.8933 -82.6600 51° Northeast 119 137 5,000 60 Climbing Cleveland Center
15:11 40.8975 -82.6564 33° Northeast 118 136 5,000  Level Cleveland Center
15:12 40.9142 -82.6253 55° Northeast 120 138 5,000  Level Cleveland Center
15:13 40.9281 -82.6036 50° Northeast 120 138 5,000  Level Cleveland Center
15:13 40.9378 -82.5842 56° Northeast 120 138 5,000  Level Cleveland Center
15:14 40.9483 -82.5683 49° Northeast 119 137 5,000  Level Cleveland Center
15:14 40.9583 -82.5489 56° Northeast 120 138 5,000  Level Cleveland Center
15:15 40.9661 -82.5381 46° Northeast 119 137 5,000  Level Cleveland Center
15:15 40.9781 -82.5131 58° Northeast 120 138 5,000 60 Level Cleveland Center
15:16 40.9842 -82.5025 53° Northeast 121 139 5,100 60 Climbing Cleveland Center
15:16 40.9869 -82.4731 83° East 118 136 5,100  Level Cleveland Center
15:17 40.9906 -82.4592 71° East 118 136 5,100  Level Cleveland Center
15:17 40.9947 -82.4294 79° East 119 137 5,100  Level Cleveland Center
15:18 40.9994 -82.4108 71° East 120 138 5,100  Level Cleveland Center
15:18 41.0025 -82.3875 80° East 118 136 5,100  Level Cleveland Center
15:19 41.0081 -82.3678 70° East 119 137 5,100 -120 Level Cleveland Center
15:19 41.0106 -82.3453 82° East 118 136 5,000  Descending Cleveland Center
15:20 41.0142 -82.3244 77° East 119 137 5,100 -300 Climbing Cleveland Center
15:20 41.0186 -82.2933 79° East 121 139 4,700 -540 Descending Cleveland Center
15:21 41.0228 -82.2814 65° Northeast 120 138 4,600 -420 Descending Cleveland Center
15:21 41.0278 -82.2500 78° East 121 139 4,300 -360 Descending Cleveland Center
15:22 41.0333 -82.2361 62° Northeast 117 135 4,200 -300 Descending Cleveland Center
15:22 41.0392 -82.2092 74° East 119 137 4,000 -240 Descending Cleveland Center
15:23 41.0453 -82.1992 51° Northeast 113 130 4,000 -120 Level Cleveland Center
15:23 41.0528 -82.1717 70° East 115 132 3,900  Descending Cleveland Center
15:24 41.0567 -82.1678 37° Northeast 126 145 4,000 60 Climbing Cleveland Center
15:25 41.0658 -82.1353 69° East 111 128 4,000  Level Cleveland Center
15:25 41.0692 -82.1256 66° East 107 123 4,000  Level Cleveland Center
15:26 41.0783 -82.0986 66° East 110 127 4,000  Level Cleveland Center
15:26 41.0833 -82.0861 62° Northeast 112 129 4,000  Level Cleveland Center
15:27 41.0908 -82.0603 69° East 111 128 4,000  Level Cleveland Center
15:27 41.0953 -82.0492 62° Northeast 114 131 4,000  Level Cleveland Center
15:28 41.1044 -82.0203 67° East 115 132 4,000  Level Cleveland Center
15:28 41.1056 -82.0150 74° East 113 130 4,000  Level Cleveland Center
15:29 41.1164 -81.9806 67° East 114 131 4,000  Level Cleveland Center
15:29 41.1181 -81.9756 66° East 114 131 4,000  Level Cleveland Center
15:30 41.1308 -81.9411 64° Northeast 114 131 4,000  Level Cleveland Center
15:30 41.1311 -81.9369 85° East 114 131 4,000  Level Cleveland Center
15:31 41.1428 -81.9017 66° East 116 133 4,000  Level Cleveland Center
15:31 41.1428 -81.8978 90° East 114 131 4,000  Level Cleveland Center
15:32 41.1550 -81.8619 66° East 118 136 4,000 -120 Level Cleveland Center
15:32 41.1553 -81.8567 86° East 117 135 3,900 -120 Descending Cleveland Center
15:33 41.1694 -81.8197 63° Northeast 116 133 3,900  Level Cleveland Center
15:33 41.1697 -81.8181 78° East 116 133 3,900  Level Cleveland Center
15:34 41.1836 -81.7775 66° East 109 125 3,900  Level Cleveland Center
15:34 41.1853 -81.7733 62° Northeast 115 132 3,900  Level Cleveland Center
15:35 41.1981 -81.7347 66° East 114 131 3,900  Level Cleveland Center
15:35 41.1981 -81.7353 270° West 114 131 3,900 60 Level Cleveland Center
15:36 41.2125 -81.6961 64° Northeast 115 132 4,000  Climbing Cleveland Center
15:37 41.2264 -81.6564 65° Northeast 118 136 4,000  Level Cleveland Center
15:37 41.2250 -81.6575 211° Southwest 115 132 4,000  Level Cleveland Center
15:38 41.2492 -81.6325 38° Northeast 125 144 4,000  Level Cleveland Center
15:38 41.2556 -81.6333 354° North 124 143 4,000  Level Cleveland Center
15:39 41.2878 -81.6286 North 122 140 4,000 -60 Level Cleveland Center
15:40 41.3192 -81.6233 North 117 135 3,900 -120 Descending Cleveland Center
15:40 41.3194 -81.6242 294° West 120 138 3,900 -420 Level Cleveland Center
15:41 41.3531 -81.6167 10° North 120 138 3,500 -420 Descending Cleveland Center
15:42 41.3922 -81.6106 North 123 142 3,100 -420 Descending Cleveland Center
15:42 41.3881 -81.6100 174° South 124 143 3,100 -180 Level Cleveland Center
15:43 41.4172 -81.6117 358° North 116 133 3,000 -240 Descending Cleveland Center
15:43 41.4208 -81.6114 North 122 140 2,900 -240 Descending Cleveland Center
15:44 41.4517 -81.6256 341° North 121 139 2,800 -120 Descending Cleveland Center
15:44 41.4572 -81.6292 334° Northwest 121 139 2,800 -240 Level Cleveland Center
15:45 41.4794 -81.6439 334° Northwest 117 135 2,600 -420 Descending Cleveland Center
15:45 41.4856 -81.6489 328° Northwest 118 136 2,400 -660 Descending Cleveland Center
15:46 41.5147 -81.6719 329° Northwest 113 130 1,800 -720 Descending Cleveland Center
15:46 41.5144 -81.6717 143° Southeast 119 137 1,700 -360 Descending Cleveland Center
15:47 41.5222 -81.7039 288° West 119 137 1,500 -300 Descending Cleveland Center
15:47 41.5172 -81.7050 189° South 117 135 1,400 -120 Descending Cleveland Center
15:48 41.5061 -81.7181 221° Southwest 80 92 1,400 -240 Level Cleveland Center
15:48 41.5047 -81.7067 99° East 98 113 1,200 -300 Descending Cleveland Center
15:49 41.5153 -81.6806 62° Northeast 89 102 1,000 -240 Descending Cleveland Center